Location: Be Tobo
(6.6442°N, 10.6239°W)
Time: 00:12:57
(UTC+00:00)

Cosmos 1125 Rocket - Pass Details

Date: 18 September 2020
Orbit: 757 x 780 km, 74.0° (Epoch: 21 October)

Event Time Altitude Azimuth Distance (km) Brightness Sun altitude
Rises 20:26:06 0° 204° (SSW) 3,233 7.0 -27.0°
Reaches altitude 10° 20:28:32 10° 209° (SSW) 2,309 6.2 -27.6°
Maximum altitude 20:33:34 48° 283° (WNW) 1,005 4.4 -28.9°
Drops below altitude 10° 20:38:38 10° 357° (N) 2,317 6.1 -30.1°
Sets 20:41:06 0° 3° (N) 3,246 6.8 -30.8°
